Content
SEND FEEDBACK

Daily
Averages
Monthly
Summary
Canada

MONTREAL, QUEBEC


Home > North America > Canada > Quebec
Elevation: 35 meters     Latitude: 45 28N     Longitude: 073 45W

WEATHER
 
SELECT A DAY
Number of Records: 198,022;   Date Range: 1/1/95 - 7/20/14
 
SHARE

PRINT THIS DATA

[ ← Previous Day ]
WEATHER ALMANAC - 10 JANUARY, 2013
[ Next Day → ]
[ °F ]   °C
Weather ElementAverageHighLow
Temperature1.8 °C3 °C (1:00 am)0 °C (11:00 pm)
Dewpoint-3.4 °C-1 °C (1:00 am) (7:00 pm)
Humidity70.1 %75 % (1:00 am)59 % (7:00 am)
Barometer992.6 hPa1035.6 hPa (8:00 pm) (7:00 pm)
Wind Speed22.7 km/h44.4 km/h (2:00 am)
Wind Gust57.5 km/h (2:00 am)
Weather ElementAverage
Visibility29.1 km
Wind DirectionWSW (256.4 °)

Weather ElementTotal
Precipitation---
Heating Degree Days16.8 (Base 18.3)
Averaged from 28 records on 10 January, 2013
WEATHER CONDITIONS BREAKOUT
WIND DIRECTION BREAKOUT
WEATHER BY HOUR - 10 JANUARY, 2013
[ °F ]   °C
Local TimeTemperatureDewpointHumidityBarometerVisibilityWind DirectionWind SpeedGust SpeedPrecipitationEventsConditions
1:00 AM2.8 °C-1.1 °C66 %1016.6 hPa24.1 kmWest (270°)37 km/hPartly Cloudy
1:00 AM3 °C-1 °C75 %1016.6 hPa24.1 kmWest (270°)40.7 km/h53.8 km/hPartly Cloudy
2:00 AM3 °C-2 °C70 %1019 hPa24.1 kmWest (270°)44.4 km/h57.5 km/hScattered Clouds
3:00 AM3 °C-3 °C65 %1020.7 hPa24.1 kmWest (260°)35.2 km/h46.3 km/hPartly Cloudy
3:17 AM2 °C-17.8 °C24.1 kmWest (260°)27.8 km/h40.7 km/hScattered Clouds
4:00 AM2 °C-2 °C75 %1022 hPa24.1 kmWest (260°)37 km/h46.3 km/hPartly Cloudy
5:00 AM2 °C-3 °C70 %1023.4 hPa24.1 kmWSW (250°)29.6 km/h44.4 km/hMostly Cloudy
6:00 AM2 °C-3 °C70 %1024.4 hPa24.1 kmWest (260°)31.5 km/h46.3 km/hPartly Cloudy
7:00 AM2.2 °C-2.8 °C59 %1025.7 hPa24.1 kmWest (260°)25.9 km/hPartly Cloudy
7:00 AM2 °C-3 °C70 %1025.7 hPa24.1 kmWest (260°)27.8 km/hScattered Clouds
8:00 AM1 °C-3 °C75 %1027.8 hPa24.1 kmWSW (250°)24.1 km/hMostly Cloudy
9:00 AM1 °C-3 °C75 %1029.5 hPa24.1 kmWSW (250°)33.3 km/hMostly Cloudy
10:00 AM1 °C-3 °C75 %1030.5 hPa24.1 kmWSW (240°)22.2 km/h35.2 km/hOvercast
11:00 AM2 °C-3 °C70 %1031.2 hPa24.1 kmWest (260°)25.9 km/hOvercast
12:00 PM2 °C-3 °C70 %1031.2 hPa48.3 kmWest (270°)20.4 km/hOvercast
1:00 PM2.2 °C-2.8 °C59 %1031.5 hPa45.1 kmWest (270°)25.9 km/hMostly Cloudy
1:00 PM2 °C-3 °C70 %1031.5 hPa48.3 kmWest (270°)25.9 km/hMostly Cloudy
2:00 PM2 °C-3 °C70 %1032.2 hPa48.3 kmWest (270°)24.1 km/hMostly Cloudy
3:00 PM2 °C-3 °C70 %1033.5 hPa48.3 kmWest (270°)20.4 km/hMostly Cloudy
4:00 PM2 °C-3 °C70 %1034.2 hPa48.3 kmWest (280°)16.7 km/hMostly Cloudy
5:00 PM2 °C-3 °C70 %1034.9 hPa24.1 kmWNW (300°)14.8 km/hMostly Cloudy
6:00 PM2 °C-3 °C70 %1034.9 hPa24.1 kmWest (260°)3.7 km/hMostly Cloudy
7:00 PM1.1 °C-3.3 °C64 %1034.9 hPa24.1 kmWest (280°)3.7 km/hMostly Cloudy
7:00 PM1 °C-3 °C75 %1034.9 hPa24.1 kmWNW (290°)3.7 km/hMostly Cloudy
8:00 PM1 °C-3 °C75 %1035.6 hPa24.1 kmNW (310°)9.3 km/hMostly Cloudy
9:00 PM1 °C-3 °C75 %1035.6 hPa24.1 kmNorth (350°)5.6 km/hMostly Cloudy
10:00 PM1 °C-4 °C70 %1034.9 hPa24.1 kmNNE (30°)7.4 km/hMostly Cloudy
11:00 PM0 °C-5 °C69 %1034.5 hPa24.1 kmESE (110°)11.1 km/hPartly Cloudy
Hourly data recorded from CYUL, located 0 kilometers away from Montreal, Quebec







STORIES FROM OUR PARTNERS